Time,TemperatureF,DewpointF,PressureIn,WindDirection,WindDirectionDegrees,WindSpeedMPH,WindSpeedGustMPH,Humidity,HourlyPrecipIn,Conditions,Clouds,dailyrainin,SolarRadiationWatts/m^2,SoftwareType,DateUTC
2013-03-29 00:00:00,45.2,-99.9,19.98,NE,48,0.0,3.0,255,0.00,,,0.00,0,Wunderground v.1.15,2013-03-29 04:00:00,
2013-03-29 00:10:00,44.5,-99.9,19.98,NE,48,0.0,3.0,255,0.00,,,0.00,0,Wunderground v.1.15,2013-03-29 04:10:00,
2013-03-29 00:21:00,43.8,-99.9,19.99,NE,48,0.0,3.0,255,0.00,,,0.00,0,Wunderground v.1.15,2013-03-29 04:21:00,
2013-03-29 00:41:00,43.7,-99.9,19.99,NE,48,0.0,0.0,255,0.00,,,0.00,0,Wunderground v.1.15,2013-03-29 04:41:00,
2013-03-29 00:51:00,43.4,-99.9,19.99,NE,48,0.0,0.0,255,0.00,,,0.00,0,Wunderground v.1.15,2013-03-29 04:51:00,
2013-03-29 01:00:00,42.7,-99.9,19.99,NE,48,0.0,0.0,255,0.00,,,0.00,0,Wunderground v.1.15,2013-03-29 05:00:00,
2013-03-29 01:11:00,43.2,-99.9,19.99,NE,48,0.0,0.0,255,0.00,,,0.00,0,Wunderground v.1.15,2013-03-29 05:11:00,
2013-03-29 01:20:00,42.5,-99.9,19.98,NE,48,0.0,0.0,255,0.00,,,0.00,0,Wunderground v.1.15,2013-03-29 05:20:00,
2013-03-29 01:30:00,42.3,-99.9,19.99,NE,48,0.0,0.0,255,0.00,,,0.00,0,Wunderground v.1.15,2013-03-29 05:30:00,
2013-03-29 01:40:00,41.2,-99.9,19.99,NE,48,0.0,0.0,255,0.00,,,0.00,0,Wunderground v.1.15,2013-03-29 05:40:00,
2013-03-29 01:50:00,41.2,-99.9,19.99,NE,48,0.0,0.0,255,0.00,,,0.00,0,Wunderground v.1.15,2013-03-29 05:50:00,
2013-03-29 02:00:00,40.9,-99.9,19.99,NE,48,0.0,0.0,255,0.00,,,0.00,0,Wunderground v.1.15,2013-03-29 06:00:00,
2013-03-29 02:10:00,41.3,-99.9,19.99,NE,48,0.0,0.0,255,0.00,,,0.00,0,Wunderground v.1.15,2013-03-29 06:10:00,
2013-03-29 02:20:00,41.0,-99.9,19.99,NE,48,0.0,0.0,255,0.00,,,0.00,0,Wunderground v.1.15,2013-03-29 06:20:00,
2013-03-29 02:30:00,41.4,-99.9,19.99,NE,48,0.0,0.0,255,0.00,,,0.00,0,Wunderground v.1.15,2013-03-29 06:30:00,
2013-03-29 02:40:00,41.5,-99.9,19.99,NE,48,0.0,0.0,255,0.00,,,0.00,0,Wunderground v.1.15,2013-03-29 06:40:00,
2013-03-29 02:50:00,40.7,-99.9,19.99,NE,48,0.0,0.0,255,0.00,,,0.00,0,Wunderground v.1.15,2013-03-29 06:50:00,
2013-03-29 02:59:00,40.7,-99.9,19.99,NE,48,0.0,0.0,255,0.00,,,0.00,0,Wunderground v.1.15,2013-03-29 06:59:00,
2013-03-29 03:10:00,40.9,-99.9,19.99,NE,48,0.0,0.0,255,0.00,,,0.00,0,Wunderground v.1.15,2013-03-29 07:10:00,
2013-03-29 03:21:00,40.0,-99.9,19.99,NE,48,0.0,0.0,255,0.00,,,0.00,0,Wunderground v.1.15,2013-03-29 07:21:00,
2013-03-29 03:41:00,40.8,-99.9,19.99,NE,48,0.0,1.0,255,0.00,,,0.00,0,Wunderground v.1.15,2013-03-29 07:41:00,
2013-03-29 03:51:00,40.8,-99.9,19.99,NE,48,0.0,1.0,255,0.00,,,0.00,0,Wunderground v.1.15,2013-03-29 07:51:00,
2013-03-29 04:00:00,39.6,-99.9,19.99,NE,48,0.0,1.0,255,0.00,,,0.00,0,Wunderground v.1.15,2013-03-29 08:00:00,
2013-03-29 04:10:00,39.7,-99.9,19.99,NE,48,0.0,1.0,255,0.00,,,0.00,0,Wunderground v.1.15,2013-03-29 08:10:00,
2013-03-29 04:20:00,39.5,-99.9,19.98,NE,48,0.0,1.0,255,0.00,,,0.00,0,Wunderground v.1.15,2013-03-29 08:20:00,
2013-03-29 04:30:00,39.6,-99.9,19.99,NE,48,0.0,0.0,255,0.00,,,0.00,0,Wunderground v.1.15,2013-03-29 08:30:00,
2013-03-29 04:40:00,38.6,-99.9,19.99,NE,48,3.0,3.0,255,0.00,,,0.00,0,Wunderground v.1.15,2013-03-29 08:40:00,
2013-03-29 04:50:00,39.8,-99.9,19.99,NE,48,2.0,2.0,255,0.00,,,0.00,0,Wunderground v.1.15,2013-03-29 08:50:00,
2013-03-29 05:00:00,39.8,-99.9,19.99,NE,48,0.0,4.0,255,0.00,,,0.00,0,Wunderground v.1.15,2013-03-29 09:00:00,
2013-03-29 05:10:00,40.0,-99.9,19.99,NE,48,2.0,4.0,255,0.00,,,0.00,0,Wunderground v.1.15,2013-03-29 09:10:00,
2013-03-29 05:20:00,40.5,-99.9,19.99,NE,48,2.0,4.0,255,0.00,,,0.00,0,Wunderground v.1.15,2013-03-29 09:20:00,
2013-03-29 05:30:00,40.7,-99.9,19.99,NE,48,2.0,4.0,255,0.00,,,0.00,0,Wunderground v.1.15,2013-03-29 09:30:00,
2013-03-29 05:40:00,42.1,-99.9,19.99,NE,45,2.0,4.0,255,0.00,,,0.00,0,Wunderground v.1.15,2013-03-29 09:40:00,
2013-03-29 05:50:00,42.8,-99.9,19.99,NE,52,1.0,4.0,255,0.00,,,0.00,0,Wunderground v.1.15,2013-03-29 09:50:00,
2013-03-29 06:00:00,42.7,-99.9,19.99,NE,52,3.0,4.0,255,0.00,,,0.00,0,Wunderground v.1.15,2013-03-29 10:00:00,
2013-03-29 06:10:00,42.9,-99.9,19.99,NE,50,3.0,5.0,255,0.00,,,0.00,0,Wunderground v.1.15,2013-03-29 10:10:00,
2013-03-29 06:31:00,42.2,-99.9,19.99,NE,48,2.0,6.0,255,0.00,,,0.00,0,Wunderground v.1.15,2013-03-29 10:31:00,
2013-03-29 06:41:00,41.9,-99.9,19.99,NE,48,3.0,6.0,255,0.00,,,0.00,0,Wunderground v.1.15,2013-03-29 10:41:00,
2013-03-29 06:50:00,41.4,-99.9,19.99,NE,46,2.0,6.0,255,0.00,,,0.00,0,Wunderground v.1.15,2013-03-29 10:50:00,
2013-03-29 07:00:00,41.2,-99.9,19.99,NE,50,2.0,6.0,255,0.00,,,0.00,0,Wunderground v.1.15,2013-03-29 11:00:00,
2013-03-29 07:10:00,40.7,-99.9,19.99,NE,50,3.0,6.0,255,0.00,,,0.00,0,Wunderground v.1.15,2013-03-29 11:10:00,
2013-03-29 07:20:00,40.6,-99.9,19.99,NE,50,3.0,6.0,255,0.00,,,0.00,0,Wunderground v.1.15,2013-03-29 11:20:00,
2013-03-29 07:30:00,40.7,-99.9,19.99,NE,50,3.0,5.0,255,0.00,,,0.00,0,Wunderground v.1.15,2013-03-29 11:30:00,
2013-03-29 07:40:00,41.2,-99.9,19.99,NE,50,2.0,5.0,255,0.00,,,0.00,0,Wunderground v.1.15,2013-03-29 11:40:00,
2013-03-29 07:50:00,41.7,-99.9,19.99,NE,50,3.0,5.0,255,0.00,,,0.00,0,Wunderground v.1.15,2013-03-29 11:50:00,
2013-03-29 08:00:00,42.7,-99.9,19.99,NE,50,1.0,5.0,255,0.00,,,0.00,0,Wunderground v.1.15,2013-03-29 12:00:00,
2013-03-29 08:10:00,43.8,-99.9,19.99,ENE,64,4.0,5.0,255,0.00,,,0.00,0,Wunderground v.1.15,2013-03-29 12:10:00,
2013-03-29 08:20:00,45.2,-99.9,19.99,ENE,69,5.0,5.0,255,0.00,,,0.00,0,Wunderground v.1.15,2013-03-29 12:20:00,
2013-03-29 08:30:00,46.4,-99.9,19.99,East,99,4.0,5.0,255,0.00,,,0.00,0,Wunderground v.1.15,2013-03-29 12:30:00,
2013-03-29 08:40:00,47.8,-99.9,19.99,SE,125,2.0,7.0,255,0.00,,,0.00,0,Wunderground v.1.15,2013-03-29 12:40:00,
2013-03-29 08:50:00,49.2,-99.9,19.99,ESE,118,3.0,7.0,255,0.00,,,0.00,0,Wunderground v.1.15,2013-03-29 12:50:00,
2013-03-29 08:59:00,50.4,-99.9,19.99,SE,128,4.0,7.0,255,0.00,,,0.00,0,Wunderground v.1.15,2013-03-29 12:59:00,
2013-03-29 09:10:00,50.9,-99.9,19.99,SE,129,16.0,16.0,255,0.00,,,0.00,0,Wunderground v.1.15,2013-03-29 13:10:00,
2013-03-29 09:21:00,51.7,-99.9,19.99,SE,134,10.0,10.0,255,0.00,,,0.00,0,Wunderground v.1.15,2013-03-29 13:21:00,
2013-03-29 09:31:00,52.0,-99.9,19.99,ESE,111,6.0,16.0,255,0.00,,,0.00,0,Wunderground v.1.15,2013-03-29 13:31:00,
2013-03-29 09:41:00,52.7,-99.9,19.99,ESE,106,9.0,16.0,255,0.00,,,0.00,0,Wunderground v.1.15,2013-03-29 13:41:00,
2013-03-29 09:51:00,52.7,-99.9,19.99,ENE,67,8.0,16.0,255,0.00,,,0.00,0,Wunderground v.1.15,2013-03-29 13:51:00,
2013-03-29 10:00:00,53.6,-99.9,19.99,SE,128,3.0,18.0,255,0.00,,,0.00,0,Wunderground v.1.15,2013-03-29 14:00:00,
2013-03-29 10:10:00,53.9,-99.9,19.99,SE,124,7.0,18.0,255,0.00,,,0.00,0,Wunderground v.1.15,2013-03-29 14:10:00,
2013-03-29 10:20:00,53.9,-99.9,19.99,East,92,3.0,18.0,255,0.00,,,0.00,0,Wunderground v.1.15,2013-03-29 14:20:00,
2013-03-29 10:30:00,53.9,-99.9,19.99,SSE,158,10.0,14.0,255,0.00,,,0.00,0,Wunderground v.1.15,2013-03-29 14:30:00,
2013-03-29 10:40:00,53.7,-99.9,19.99,SE,135,10.0,14.0,255,0.00,,,0.00,0,Wunderground v.1.15,2013-03-29 14:40:00,
2013-03-29 10:50:00,53.9,-99.9,19.99,SE,137,7.0,14.0,255,0.00,,,0.00,0,Wunderground v.1.15,2013-03-29 14:50:00,
2013-03-29 11:00:00,55.0,-99.9,19.99,ESE,110,8.0,17.0,255,0.00,,,0.00,0,Wunderground v.1.15,2013-03-29 15:00:00,
2013-03-29 11:10:00,54.9,-99.9,19.99,SSE,164,6.0,17.0,255,0.00,,,0.00,0,Wunderground v.1.15,2013-03-29 15:10:00,
2013-03-29 11:20:00,56.5,-99.9,19.99,East,92,8.0,17.0,255,0.00,,,0.00,0,Wunderground v.1.15,2013-03-29 15:20:00,
2013-03-29 11:30:00,55.2,-99.9,19.98,SSE,148,6.0,17.0,255,0.00,,,0.00,0,Wunderground v.1.15,2013-03-29 15:30:00,
2013-03-29 11:40:00,56.8,-99.9,19.99,SSE,162,10.0,13.0,255,0.00,,,0.00,0,Wunderground v.1.15,2013-03-29 15:40:00,
2013-03-29 11:50:00,56.4,-99.9,19.99,SE,138,11.0,13.0,255,0.00,,,0.00,0,Wunderground v.1.15,2013-03-29 15:50:00,
2013-03-29 11:59:00,55.4,-99.9,19.98,ESE,121,10.0,13.0,255,0.00,,,0.00,0,Wunderground v.1.15,2013-03-29 15:59:00,
2013-03-29 12:10:00,55.4,-99.9,19.99,SE,129,11.0,16.0,255,0.00,,,0.00,0,Wunderground v.1.15,2013-03-29 16:10:00,
2013-03-29 12:21:00,56.4,-99.9,19.99,South,174,7.0,16.0,255,0.00,,,0.00,0,Wunderground v.1.15,2013-03-29 16:21:00,
2013-03-29 12:41:00,56.6,-99.9,19.99,SSE,164,7.0,17.0,255,0.00,,,0.00,0,Wunderground v.1.15,2013-03-29 16:41:00,
2013-03-29 12:51:00,56.1,-99.9,19.99,SE,142,9.0,17.0,255,0.00,,,0.00,0,Wunderground v.1.15,2013-03-29 16:51:00,
2013-03-29 13:00:00,56.6,-99.9,19.99,South,184,9.0,20.0,255,0.00,,,0.00,0,Wunderground v.1.15,2013-03-29 17:00:00,
2013-03-29 13:10:00,56.3,-99.9,19.99,SSE,163,5.0,20.0,255,0.00,,,0.00,0,Wunderground v.1.15,2013-03-29 17:10:00,
2013-03-29 13:20:00,57.1,-99.9,19.98,South,178,10.0,20.0,255,0.00,,,0.00,0,Wunderground v.1.15,2013-03-29 17:20:00,
2013-03-29 13:30:00,57.2,-99.9,19.98,South,178,3.0,15.0,255,0.00,,,0.00,0,Wunderground v.1.15,2013-03-29 17:30:00,
2013-03-29 13:40:00,58.8,-99.9,19.99,SSW,209,2.0,15.0,255,0.00,,,0.00,0,Wunderground v.1.15,2013-03-29 17:40:00,
2013-03-29 13:50:00,58.1,-99.9,19.99,SSW,205,10.0,15.0,255,0.00,,,0.00,0,Wunderground v.1.15,2013-03-29 17:50:00,
2013-03-29 14:00:00,57.8,-99.9,19.99,South,190,9.0,17.0,255,0.00,,,0.00,0,Wunderground v.1.15,2013-03-29 18:00:00,
2013-03-29 14:10:00,58.0,-99.9,19.99,SSW,196,11.0,17.0,255,0.00,,,0.00,0,Wunderground v.1.15,2013-03-29 18:10:00,
2013-03-29 14:20:00,58.0,-99.9,19.99,SSE,159,9.0,17.0,255,0.00,,,0.00,0,Wunderground v.1.15,2013-03-29 18:20:00,
2013-03-29 14:30:00,58.3,-99.9,19.99,SSW,212,5.0,17.0,255,0.00,,,0.00,0,Wunderground v.1.15,2013-03-29 18:30:00,
2013-03-29 14:40:00,59.7,-99.9,19.99,SE,137,9.0,16.0,255,0.00,,,0.00,0,Wunderground v.1.15,2013-03-29 18:40:00,
2013-03-29 14:50:00,58.7,-99.9,19.98,SW,216,5.0,16.0,255,0.00,,,0.00,0,Wunderground v.1.15,2013-03-29 18:50:00,
2013-03-29 15:00:00,57.5,-99.9,19.99,South,186,6.0,16.0,255,0.00,,,0.00,0,Wunderground v.1.15,2013-03-29 19:00:00,
2013-03-29 15:09:00,58.3,-99.9,19.99,South,173,5.0,20.0,255,0.00,,,0.00,0,Wunderground v.1.15,2013-03-29 19:09:00,
2013-03-29 15:21:00,57.9,-99.9,19.99,SW,227,6.0,20.0,255,0.00,,,0.00,0,Wunderground v.1.15,2013-03-29 19:21:00,
2013-03-29 15:31:00,57.3,-99.9,19.99,SSW,192,12.0,17.0,255,0.00,,,0.00,0,Wunderground v.1.15,2013-03-29 19:31:00,
2013-03-29 15:40:00,58.6,-99.9,19.99,South,186,5.0,17.0,255,0.00,,,0.00,0,Wunderground v.1.15,2013-03-29 19:40:00,
2013-03-29 15:51:00,58.4,-99.9,19.99,SSW,210,11.0,17.0,255,0.00,,,0.00,0,Wunderground v.1.15,2013-03-29 19:51:00,
2013-03-29 16:01:00,58.8,-99.9,19.99,South,182,11.0,19.0,255,0.00,,,0.00,0,Wunderground v.1.15,2013-03-29 20:01:00,
2013-03-29 16:10:00,59.6,-99.9,19.99,SW,223,8.0,19.0,255,0.00,,,0.00,0,Wunderground v.1.15,2013-03-29 20:10:00,
2013-03-29 16:20:00,58.2,-99.9,19.99,South,169,4.0,19.0,255,0.00,,,0.00,0,Wunderground v.1.15,2013-03-29 20:20:00,
2013-03-29 16:30:00,58.2,-99.9,19.99,South,187,12.0,15.0,255,0.00,,,0.00,0,Wunderground v.1.15,2013-03-29 20:30:00,
2013-03-29 16:40:00,59.4,-99.9,19.99,WSW,249,7.0,15.0,255,0.00,,,0.00,0,Wunderground v.1.15,2013-03-29 20:40:00,
2013-03-29 16:50:00,58.3,-99.9,19.99,SW,233,9.0,15.0,255,0.00,,,0.00,0,Wunderground v.1.15,2013-03-29 20:50:00,
2013-03-29 17:00:00,58.3,-99.9,19.99,SSW,195,11.0,15.0,255,0.00,,,0.00,0,Wunderground v.1.15,2013-03-29 21:00:00,
2013-03-29 17:10:00,58.3,-99.9,19.98,SSW,208,10.0,15.0,255,0.00,,,0.00,0,Wunderground v.1.15,2013-03-29 21:10:00,
2013-03-29 17:20:00,58.0,-99.9,19.99,SW,235,8.0,15.0,255,0.00,,,0.00,0,Wunderground v.1.15,2013-03-29 21:20:00,
2013-03-29 17:30:00,58.5,-99.9,19.99,SW,220,9.0,15.0,255,0.00,,,0.00,0,Wunderground v.1.15,2013-03-29 21:30:00,
2013-03-29 17:40:00,58.7,-99.9,19.98,SW,234,4.0,18.0,255,0.00,,,0.00,0,Wunderground v.1.15,2013-03-29 21:40:00,
2013-03-29 17:50:00,58.6,-99.9,19.98,SW,233,4.0,18.0,255,0.00,,,0.00,0,Wunderground v.1.15,2013-03-29 21:50:00,
2013-03-29 18:00:00,58.4,-99.9,19.98,WSW,248,7.0,18.0,255,0.00,,,0.00,0,Wunderground v.1.15,2013-03-29 22:00:00,
2013-03-29 18:09:00,58.2,-99.9,19.99,SW,215,4.0,16.0,255,0.00,,,0.00,0,Wunderground v.1.15,2013-03-29 22:09:00,
2013-03-29 18:31:00,57.7,-99.9,19.99,SSW,201,5.0,12.0,255,0.00,,,0.00,0,Wunderground v.1.15,2013-03-29 22:31:00,
2013-03-29 18:41:00,57.8,-99.9,19.99,SSW,194,1.0,12.0,255,0.00,,,0.00,0,Wunderground v.1.15,2013-03-29 22:41:00,
2013-03-29 18:50:00,57.5,-99.9,19.99,WSW,252,4.0,12.0,255,0.00,,,0.00,0,Wunderground v.1.15,2013-03-29 22:50:00,
2013-03-29 19:00:00,56.9,-99.9,19.99,SSW,208,7.0,13.0,255,0.00,,,0.00,0,Wunderground v.1.15,2013-03-29 23:00:00,
2013-03-29 19:10:00,56.8,-99.9,19.99,WSW,248,1.0,13.0,255,0.00,,,0.00,0,Wunderground v.1.15,2013-03-29 23:10:00,
2013-03-29 19:20:00,56.4,-99.9,19.99,WSW,245,3.0,13.0,255,0.00,,,0.00,0,Wunderground v.1.15,2013-03-29 23:20:00,
2013-03-29 19:30:00,56.0,-99.9,19.99,SW,218,3.0,11.0,255,0.00,,,0.00,0,Wunderground v.1.15,2013-03-29 23:30:00,
2013-03-29 19:40:00,55.7,-99.9,19.99,SW,235,2.0,11.0,255,0.00,,,0.00,0,Wunderground v.1.15,2013-03-29 23:40:00,
2013-03-29 19:50:00,55.3,-99.9,19.98,SW,235,1.0,11.0,255,0.00,,,0.00,0,Wunderground v.1.15,2013-03-29 23:50:00,
2013-03-29 20:00:00,55.0,-99.9,19.98,SW,235,1.0,11.0,255,0.00,,,0.00,0,Wunderground v.1.15,2013-03-30 00:00:00,
2013-03-29 20:10:00,54.9,-99.9,19.99,SW,235,1.0,8.0,255,0.00,,,0.00,0,Wunderground v.1.15,2013-03-30 00:10:00,
2013-03-29 20:20:00,54.6,-99.9,19.99,SW,235,0.0,8.0,255,0.00,,,0.00,0,Wunderground v.1.15,2013-03-30 00:20:00,
2013-03-29 20:30:00,54.2,-99.9,19.99,SW,235,1.0,8.0,255,0.00,,,0.00,0,Wunderground v.1.15,2013-03-30 00:30:00,
2013-03-29 20:40:00,53.8,-99.9,19.99,SW,235,1.0,5.0,255,0.00,,,0.00,0,Wunderground v.1.15,2013-03-30 00:40:00,
2013-03-29 20:50:00,53.0,-99.9,19.99,SW,235,0.0,5.0,255,0.00,,,0.00,0,Wunderground v.1.15,2013-03-30 00:50:00,
2013-03-29 21:00:00,52.1,-99.9,19.99,SW,235,0.0,5.0,255,0.00,,,0.00,0,Wunderground v.1.15,2013-03-30 01:00:00,
2013-03-29 21:09:00,52.1,-99.9,19.98,SW,235,0.0,3.0,255,0.00,,,0.00,0,Wunderground v.1.15,2013-03-30 01:09:00,
2013-03-29 21:21:00,51.3,-99.9,19.98,SW,235,0.0,3.0,255,0.00,,,0.00,0,Wunderground v.1.15,2013-03-30 01:21:00,
2013-03-29 21:31:00,50.9,-99.9,19.99,SW,235,0.0,0.0,255,0.00,,,0.00,0,Wunderground v.1.15,2013-03-30 01:31:00,
2013-03-29 21:40:00,50.7,-99.9,19.99,SW,235,0.0,0.0,255,0.00,,,0.00,0,Wunderground v.1.15,2013-03-30 01:40:00,
2013-03-29 21:51:00,51.0,-99.9,19.99,SW,235,0.0,0.0,255,0.00,,,0.00,0,Wunderground v.1.15,2013-03-30 01:51:00,
2013-03-29 22:01:00,51.0,-99.9,19.99,SW,235,0.0,0.0,255,0.00,,,0.00,0,Wunderground v.1.15,2013-03-30 02:01:00,
2013-03-29 22:10:00,51.6,-99.9,19.99,SW,235,3.0,3.0,255,0.00,,,0.00,0,Wunderground v.1.15,2013-03-30 02:10:00,
2013-03-29 22:20:00,52.8,-99.9,19.99,SW,235,1.0,1.0,255,0.00,,,0.00,0,Wunderground v.1.15,2013-03-30 02:20:00,
2013-03-29 22:30:00,53.3,-99.9,19.98,SW,235,0.0,3.0,255,0.00,,,0.00,0,Wunderground v.1.15,2013-03-30 02:30:00,
2013-03-29 22:40:00,53.6,-99.9,19.99,SW,235,2.0,3.0,255,0.00,,,0.00,0,Wunderground v.1.15,2013-03-30 02:40:00,
2013-03-29 22:50:00,53.8,-99.9,19.99,SW,235,2.0,3.0,255,0.00,,,0.00,0,Wunderground v.1.15,2013-03-30 02:50:00,
2013-03-29 23:00:00,54.1,-99.9,19.99,SW,235,2.0,4.0,255,0.00,,,0.00,0,Wunderground v.1.15,2013-03-30 03:00:00,
2013-03-29 23:10:00,54.0,-99.9,19.99,SW,235,0.0,4.0,255,0.00,,,0.00,0,Wunderground v.1.15,2013-03-30 03:10:00,
2013-03-29 23:20:00,53.5,-99.9,19.99,SW,235,1.0,4.0,255,0.00,,,0.00,0,Wunderground v.1.15,2013-03-30 03:20:00,
2013-03-29 23:30:00,53.3,-99.9,19.99,SW,235,0.0,4.0,255,0.00,,,0.00,0,Wunderground v.1.15,2013-03-30 03:30:00,
2013-03-29 23:40:00,53.8,-99.9,19.99,SW,235,1.0,4.0,255,0.00,,,0.00,0,Wunderground v.1.15,2013-03-30 03:40:00,
2013-03-29 23:49:00,54.2,-99.9,19.98,SW,235,0.0,4.0,255,0.00,,,0.00,0,Wunderground v.1.15,2013-03-30 03:49:00,